RH
4 4 4 4 4 4 4 4 4 4 3 2 2 1 2 2 1 1 2 5 6 10 14 20 26 22 51 70 74 81 84 78 57 32 19 14 19 8 28 42 46 42 40 55 36
5 5 5 5 4 4 4 4 4 4 4 3 3 2 1 2 2 2 1 2 2 4 11 14 15 19 28 70 80 84 74 60 52 37 16 8 8 6 9 40 42 38 35 36 35
10 9 7 6 6 6 5 5 5 5 4 4 3 3 2 1 2 2 2 1 2 2 6 8 7 9 18 47 80 91 73 53 49 44 26 8 7 5 5 5 7 8 18 29 28
12 11 10 9 8 6 6 5 5 5 5 4 4 4 3 2 1 2 2 2 1 2 2 4 6 7 17 37 76 86 74 54 38 48 40 20 8 4 7 27 31 19 4 11 31
16 14 13 12 11 10 8 6 5 5 5 5 5 4 4 3 2 2 2 2 2 1 2 2 3 11 13 21 52 77 78 62 35 38 48 59 16 7 12 35 52 25 9 4 12
18 16 15 14 13 11 9 8 8 6 5 5 6 5 5 3 3 2 2 2 2 2 1 2 2 9 14 19 23 29 54 62 31 32 47 64 30 19 33 25 51 39 14 6 6
17 15 16 17 17 14 12 10 10 9 7 5 6 6 6 3 3 3 2 2 2 2 2 2 2 3 10 13 22 23 27 58 48 44 50 66 52 75 63 55 50 40 14 5 6
21 18 16 17 17 16 15 13 11 10 9 8 6 6 7 3 4 3 3 3 3 2 2 2 2 2 5 11 15 23 13 47 61 45 53 63 65 88 78 70 47 33 20 6 4
24 24 21 19 18 19 19 16 15 13 8 8 8 7 7 5 4 5 4 4 3 3 2 2 2 2 2 6 13 15 12 52 67 56 45 62 68 86 83 79 46 39 28 7 6
11 17 19 21 20 20 19 20 20 19 16 9 8 9 8 7 5 5 4 4 4 4 3 2 2 2 2 2 3 10 16 53 71 60 42 52 66 86 85 70 53 46 43 12 8
3 4 6 12 15 20 19 17 19 20 19 16 11 10 10 9 8 6 6 5 5 5 3 3 2 2 2 2 5 13 29 63 81 66 41 53 68 77 90 68 65 76 60 32 7
4 4 3 3 5 9 14 20 18 17 19 19 19 17 10 11 10 9 7 6 6 6 6 3 3 3 2 2 2 7 19 31 68 56 37 38 57 69 83 71 40 38 56 48 8
4 4 4 4 3 3 4 8 10 16 14 19 17 21 22 11 12 13 10 8 7 7 7 5 5 3 2 2 2 2 6 26 34 48 37 35 34 62 75 88 80 96 44 68 12
13 6 5 6 6 4 3 3 5 8 11 14 16 16 18 20 15 15 13 11 8 8 8 6 5 4 3 2 2 2 4 14 37 46 45 28 30 55 70 77 71 91 31 16 6
22 20 18 11 16 13 7 4 3 3 7 9 11 12 16 19 20 20 18 14 9 10 9 8 8 6 4 3 2 2 3 7 22 48 46 33 22 34 55 67 78 80 64 5 4
20 21 24 24 20 27 18 14 6 7 4 6 8 10 12 13 19 23 19 17 16 12 10 9 9 7 6 4 3 3 2 4 11 23 16 19 15 21 38 52 64 84 93 7 3
10 12 16 21 26 25 26 24 22 11 8 8 7 8 9 12 15 20 20 16 18 13 10 11 8 9 7 5 4 3 2 2 4 5 2 15 16 5 27 37 65 76 93 21 4
4 7 8 9 12 21 22 22 24 20 16 9 8 9 9 10 11 16 23 21 21 21 19 18 10 10 9 8 6 5 3 2 2 2 3 4 3 4 20 26 48 80 92 56 9
2 1 2 2 5 6 7 11 15 23 22 19 16 20 18 13 11 15 15 25 29 26 22 22 15 15 12 13 11 8 6 4 3 3 2 2 2 3 9 29 34 67 76 37 6
9 5 3 2 2 2 2 3 6 12 20 25 26 21 23 23 20 14 16 15 23 26 25 22 19 19 17 16 14 11 11 8 6 4 4 4 3 2 4 14 39 78 64 68 37
21 17 12 8 7 4 2 2 2 4 8 15 24 27 26 25 25 21 16 19 21 25 26 27 22 21 20 14 13 12 10 9 8 8 6 5 4 4 3 5 20 64 64 90 84
19 22 24 17 17 19 14 8 6 3 3 5 12 18 25 24 25 26 22 17 21 23 26 30 29 24 21 20 19 17 15 15 13 10 8 7 6 5 4 3 5 27 61 74 83
46 36 46 32 30 30 25 19 12 7 4 3 4 6 12 16 17 21 26 22 22 30 28 31 32 33 27 24 20 18 17 15 12 11 8 7 5 5 6 5 3 10 39 73 81
68 70 66 52 41 55 51 36 22 13 7 5 4 3 3 10 11 13 20 26 26 33 36 30 32 35 32 29 26 22 19 17 14 13 10 7 6 6 7 6 4 4 16 48 80
66 82 81 68 58 79 69 54 42 38 16 12 11 10 5 4 8 9 12 20 30 34 44 48 34 36 34 33 28 25 24 22 19 16 13 9 8 7 7 7 6 5 7 38 58
65 73 68 81 61 87 81 63 56 63 57 30 37 57 32 12 6 9 9 16 29 37 42 41 48 34 34 35 29 26 25 22 20 16 14 11 10 9 7 6 6 5 4 12 37
62 63 76 100 67 83 85 71 68 68 95 76 56 60 100 78 34 8 9 11 20 37 43 40 37 45 37 35 29 21 20 23 24 21 18 10 12 13 11 8 7 6 6 4 5
Wind_Speed
15 16 17 16 16 15 13 13 12 12 11 8 7 7 8 8 12 13 14 13 8 11 12 10 10 9 14 16 18 14 14 9 6 6 13 16 14 11 11 12 10 9 7 8 7
18 19 19 19 18 18 16 15 14 14 13 12 9 8 8 8 9 14 12 11 11 11 13 15 14 13 14 16 15 14 14 11 9 6 9 13 16 15 14 14 10 8 8 9 8
20 20 20 20 20 19 19 17 16 15 15 14 13 12 11 8 10 12 15 15 14 15 20 24 21 15 15 16 14 20 18 14 12 8 7 10 13 17 18 14 11 8 9 10 9
23 23 22 22 21 21 20 19 18 17 16 16 15 16 16 12 9 10 13 16 17 15 12 16 19 16 13 17 18 23 22 17 15 12 9 9 7 13 22 19 16 14 6 9 11
25 24 23 23 23 23 23 21 20 21 20 18 17 18 19 15 7 11 12 12 18 17 14 11 12 20 18 19 21 21 23 19 17 15 11 9 8 14 16 19 15 12 9 6 10
26 25 24 22 22 24 24 21 22 22 22 21 20 19 21 18 7 12 9 12 13 19 18 13 14 22 27 23 21 23 26 21 17 15 11 11 9 10 11 12 12 11 9 6 8
27 26 24 23 23 23 23 23 23 23 22 22 22 20 23 18 10 16 12 11 12 14 19 20 19 22 25 26 25 24 24 24 23 14 11 13 13 10 8 6 9 10 8 6 6
29 30 31 29 28 26 24 24 23 23 23 23 22 23 24 19 14 18 14 10 13 13 17 22 23 23 26 26 26 27 23 24 25 8 9 16 16 10 9 6 4 9 8 4 5
34 33 33 34 33 32 28 26 24 24 24 23 23 24 26 24 16 18 20 17 16 13 14 17 22 22 22 25 27 27 23 24 25 17 10 19 19 13 12 9 6 9 7 5 6
39 39 39 39 35 33 33 31 28 26 25 25 23 25 27 26 23 20 25 20 18 19 16 13 14 19 21 19 16 21 24 26 26 22 17 22 20 19 16 14 10 8 9 6 4
42 43 43 43 42 39 38 37 35 32 28 28 27 28 26 27 28 25 26 25 20 17 14 14 13 7 15 21 19 18 26 31 29 28 23 22 24 22 19 18 15 11 8 8 5
47 46 45 48 48 46 44 44 42 40 33 32 31 28 32 31 31 28 29 30 23 18 20 17 5 12 18 22 23 24 24 31 35 31 25 23 29 27 21 17 15 15 15 9 9
51 50 49 50 51 51 50 48 46 46 44 35 35 32 36 37 35 32 32 31 28 26 22 19 17 19 20 22 26 25 23 27 31 33 31 25 31 30 25 22 16 13 13 14 17
51 52 52 49 51 54 54 53 52 50 50 45 41 40 39 40 38 37 36 34 32 26 27 25 22 21 20 16 20 25 22 28 31 36 36 30 32 37 34 26 18 16 16 19 19
56 54 52 52 50 51 55 55 55 55 53 52 48 46 43 44 41 38 37 39 35 30 31 21 21 20 20 14 17 18 28 28 31 35 38 34 33 36 36 28 18 15 17 19 19
59 60 60 56 53 53 53 54 56 56 58 55 51 48 45 43 45 42 43 41 38 36 35 34 30 31 22 25 22 24 32 35 36 38 42 32 31 40 35 26 22 21 19 21 21
65 61 61 60 62 59 59 58 58 59 59 59 57 55 49 45 43 41 46 45 43 41 40 36 34 29 31 29 29 28 34 39 38 40 30 30 37 18 34 27 24 23 21 22 23
71 71 70 67 63 65 64 63 63 63 61 62 60 58 53 52 50 42 44 47 46 45 44 41 41 33 27 27 27 29 31 32 33 28 34 33 19 11 26 30 26 26 26 27 28
76 75 74 72 71 71 67 66 67 68 64 62 62 60 58 54 53 51 50 46 45 44 46 47 47 41 39 31 33 33 30 26 36 36 35 25 17 13 17 27 26 30 30 29 28
55 54 58 63 68 69 69 66 67 69 69 69 66 66 62 58 56 57 53 54 52 49 48 47 48 46 42 42 43 38 32 36 36 36 34 24 19 10 14 21 26 30 30 28 25
48 45 40 41 44 54 60 59 60 66 70 73 74 71 69 64 61 60 62 60 56 54 54 51 51 49 48 51 48 41 41 39 39 38 33 24 16 12 11 18 27 32 31 31 27
44 38 35 32 32 33 39 46 48 56 67 72 76 76 74 72 67 63 64 66 65 60 57 58 54 51 52 49 45 44 44 43 44 37 32 30 27 19 12 18 26 32 33 36 35
40 39 38 34 27 25 27 30 35 43 57 68 76 78 78 75 70 69 67 67 68 65 63 61 62 57 55 53 51 52 51 49 43 44 44 36 28 19 11 13 22 34 38 35 36
43 35 34 33 28 21 17 19 22 31 46 59 68 75 77 78 75 72 71 70 71 70 67 67 65 61 60 59 59 57 56 54 49 53 39 38 30 19 23 17 21 31 39 41 42
44 30 29 28 28 23 17 15 15 17 32 45 56 63 73 76 78 76 76 75 74 74 73 71 70 68 65 64 63 61 60 58 56 51 52 36 35 30 22 25 21 25 37 44 43
45 34 29 26 27 21 17 14 12 10 10 26 38 46 57 68 78 77 79 79 80 79 78 77 74 72 70 68 66 65 63 62 59 54 52 40 40 33 27 28 26 27 36 44 49
45 37 33 25 23 17 15 13 12 10 11 8 17 41 35 41 60 78 80 81 84 83 82 81 79 76 74 72 70 70 64 61 58 56 53 46 40 35 33 30 29 29 29 34 42
Wind_Direction
287 293 297 296 296 297 300 303 306 309 311 309 316 281 272 263 229 221 222 226 235 219 222 200 195 194 154 140 143 162 171 145 158 156 143 132 127 126 128 143 139 132 128 142 162
290 290 289 288 285 284 285 287 291 295 296 297 297 294 280 257 256 237 229 218 210 207 205 217 206 188 187 174 158 163 154 171 186 176 137 140 140 129 124 134 142 146 147 149 155
293 292 290 288 286 283 279 277 280 282 280 282 287 289 282 274 247 252 237 228 215 217 207 210 213 193 184 189 177 178 169 170 183 180 147 144 149 136 114 113 119 130 163 163 171
291 290 289 288 287 283 279 276 274 272 274 273 274 274 277 273 268 252 252 230 226 224 224 229 228 210 190 194 189 179 172 172 180 181 154 140 149 157 129 112 104 101 118 169 183
287 284 283 283 283 282 278 275 271 267 268 267 266 268 267 266 270 259 251 249 228 225 220 217 217 213 203 205 202 203 192 189 188 176 159 145 127 143 139 117 99 96 86 111 183
284 282 282 284 284 280 277 275 272 269 264 264 260 262 266 261 255 265 248 245 241 227 219 216 207 206 208 206 207 216 206 192 185 171 167 169 153 149 138 145 116 101 101 93 156
283 278 275 280 280 280 278 271 267 266 265 259 255 253 262 259 249 249 241 248 245 232 222 210 217 223 215 210 206 218 209 201 185 165 160 170 156 135 129 118 123 109 93 93 140
285 279 274 278 279 274 273 272 266 263 260 259 254 247 253 257 239 239 251 238 245 239 227 223 217 216 215 218 213 217 214 193 193 181 171 174 167 160 148 156 162 113 89 88 148
284 283 281 278 277 275 270 268 269 267 258 254 253 248 248 254 230 239 243 231 238 239 235 236 231 228 220 219 220 223 213 198 205 204 192 179 178 175 171 182 189 124 103 102 154
280 279 279 279 277 272 269 268 268 266 264 254 249 250 245 247 247 231 248 238 237 244 244 242 240 234 227 228 234 230 213 206 213 210 208 199 188 187 187 188 180 148 116 105 139
277 276 275 274 273 269 268 268 267 263 261 259 252 252 247 246 245 237 237 244 239 246 247 239 232 237 239 236 231 219 217 204 215 221 216 192 195 200 197 197 184 154 136 127 151
276 274 273 272 269 268 265 264 265 260 257 256 257 253 247 245 245 244 242 247 246 245 240 230 188 210 214 214 217 221 216 208 212 229 227 204 198 202 200 204 203 185 156 154 157
281 276 271 270 269 266 264 262 260 260 255 255 253 248 253 243 242 243 243 244 240 235 238 232 214 219 222 219 212 207 206 210 213 224 233 221 202 199 192 205 215 197 190 176 170
286 282 278 271 267 265 262 259 259 257 255 251 250 249 243 250 242 244 241 242 239 234 235 226 222 226 228 228 220 213 211 214 213 220 226 224 202 200 198 202 203 204 221 192 164
282 281 278 275 269 267 264 260 257 255 256 253 246 245 245 246 246 243 244 241 239 235 234 236 232 230 231 225 224 204 212 216 218 224 233 228 219 206 203 200 195 205 231 202 177
277 274 271 269 264 263 264 262 258 257 253 252 251 246 244 241 242 239 241 237 235 231 228 223 218 222 217 217 210 204 212 217 217 221 235 228 236 196 207 190 192 200 214 206 191
281 274 269 265 258 257 260 258 257 253 252 250 249 247 243 242 239 235 238 238 236 234 231 226 223 221 221 222 223 218 216 218 224 229 249 230 240 194 201 200 187 195 204 220 192
283 276 272 266 260 255 256 254 252 252 248 249 248 246 242 239 238 234 232 233 233 232 233 233 232 230 227 227 231 236 232 239 241 250 244 240 247 210 200 202 194 197 204 213 195
291 284 274 268 262 259 254 251 248 246 248 246 246 246 244 238 236 233 233 232 228 232 231 230 229 225 225 227 232 231 233 238 240 246 249 256 249 250 215 202 201 206 212 207 203
307 295 282 272 264 258 253 250 246 243 242 242 241 241 241 239 234 232 230 230 230 225 227 227 228 226 223 224 225 223 226 233 237 241 249 249 253 230 199 194 198 206 204 208 207
322 318 307 287 269 257 254 249 243 238 236 237 237 237 238 237 234 230 230 230 230 227 225 227 225 224 224 226 227 227 228 234 240 239 245 253 245 234 212 204 195 207 213 211 222
329 328 327 314 294 274 262 251 241 232 230 230 233 234 234 234 232 229 227 229 230 227 226 228 228 225 226 228 229 229 228 231 239 244 250 254 253 248 222 207 204 197 207 213 217
327 325 324 326 310 298 285 267 247 232 228 225 226 228 229 230 228 227 226 226 228 228 226 226 228 224 226 226 228 230 230 231 230 231 233 236 235 238 221 208 209 206 201 208 216
335 324 325 325 320 307 300 287 270 239 226 227 225 224 224 224 223 223 223 222 225 227 226 226 228 225 226 230 230 232 235 236 233 236 240 241 242 233 235 213 198 203 207 206 209
343 335 330 325 318 308 306 304 303 278 236 225 227 228 225 222 220 219 220 219 220 225 227 225 226 227 227 228 230 232 234 239 241 242 243 241 243 235 218 229 199 204 208 210 210
346 340 334 328 319 305 302 301 307 323 296 242 226 223 229 226 222 217 217 216 218 220 224 227 227 227 228 229 229 230 232 236 240 240 240 236 238 239 224 220 222 212 211 216 217
354 349 342 334 326 313 303 302 302 305 307 283 235 218 216 226 227 221 216 215 215 217 222 225 227 227 226 228 229 228 229 234 239 243 244 237 239 239 236 224 220 228 222 220 224